Location: Estes Park
(40.3770°N, 105.5210°W)
Time: 08:04:34
(UTC-06:00)

Vanguard 1 - Visible Passes

Search period start: 25 June 2018 00:00
Search period end: 05 July 2018 00:00
Orbit: 650 x 3833 km, 34.3° (Epoch: 24 June)

Date Brightness Start Highest point End Pass type
(mag) Time Alt. Az. Time Alt. Az. Time Alt. Az.
25 Jun 12.0 04:58:15 10° SSW 05:04:47 31° SE 05:15:27 10° E visible
27 Jun 12.1 03:24:20 10° SSE 03:27:01 12° SE 03:30:12 10° ESE visible
28 Jun 11.8 03:43:34 12° S 03:47:13 19° SE 03:53:15 10° E visible
29 Jun 11.6 04:03:21 14° S 04:07:32 26° SE 04:15:20 10° E visible
30 Jun 11.4 04:23:07 14° SSW 04:27:59 34° SSE 04:37:04 10° E visible
01 Jul 11.2 04:42:53 11° SW 04:48:36 43° SSE 04:58:38 10° E visible
02 Jul 11.7 02:49:55 15° SE 02:50:16 15° SE 02:53:59 10° ESE visible
03 Jul 11.2 03:09:40 21° SSE 03:10:39 22° SE 03:16:07 10° E visible
04 Jul 10.8 03:29:25 25° S 03:31:09 29° SSE 03:37:47 10° E visible
